Location: Austin
(30.3000°N, 97.7500°W)
Time: 22:16:14
(UTC-05:00)

COSMOS 2428 - Pass Details

Date: 05 September 2024
Orbit: 842 x 857 km, 70.9° (Epoch: 14 September)

Event Time Altitude Azimuth Distance (km) Brightness Sun altitude
Rises 20:28:16 0° 162° (SSE) 3,391 5.5 -9.4°
Reaches altitude 10° 20:31:19 10° 146° (SSE) 2,463 4.7 -10.0°
Maximum altitude 20:35:20 20° 100° (E) 1,850 3.8 -10.9°
Drops below altitude 10° 20:39:23 10° 55° (NE) 2,480 4.8 -11.7°
Sets 20:42:27 0° 39° (NE) 3,422 5.6 -12.3°
